Time,TemperatureF,DewpointF,PressureIn,WindDirection,WindDirectionDegrees,WindSpeedMPH,WindSpeedGustMPH,Humidity,HourlyPrecipIn,Conditions,Clouds,dailyrainin,SoftwareType,DateUTC
2013-04-06 00:01:00,61.1,18.0,29.71,SW,214,7.0,8.0,19,0.00,,,0.00,weatherlink.com 1.10,2013-04-06 06:01:00,
2013-04-06 00:16:00,62.5,18.0,29.71,SW,217,5.0,9.0,18,0.00,,,0.00,weatherlink.com 1.10,2013-04-06 06:16:00,
2013-04-06 00:31:00,61.9,19.0,29.72,SW,226,5.0,6.0,19,0.00,,,0.00,weatherlink.com 1.10,2013-04-06 06:31:00,
2013-04-06 00:46:00,61.6,19.0,29.72,SSW,202,7.0,13.0,19,0.00,,,0.00,weatherlink.com 1.10,2013-04-06 06:46:00,
2013-04-06 01:01:00,60.8,19.0,29.72,South,182,8.0,13.0,20,0.00,,,0.00,weatherlink.com 1.10,2013-04-06 07:01:00,
2013-04-06 01:16:00,60.2,19.0,29.73,South,188,7.0,11.0,20,0.00,,,0.00,weatherlink.com 1.10,2013-04-06 07:16:00,
2013-04-06 01:31:00,59.1,19.0,29.74,SSW,192,4.0,8.0,21,0.00,,,0.00,weatherlink.com 1.10,2013-04-06 07:31:00,
2013-04-06 01:46:00,59.9,20.0,29.74,SW,216,8.0,8.0,21,0.00,,,0.00,weatherlink.com 1.10,2013-04-06 07:46:00,
2013-04-06 02:01:00,61.1,22.0,29.74,WSW,253,7.0,16.0,22,0.00,,,0.00,weatherlink.com 1.10,2013-04-06 08:01:00,
2013-04-06 02:16:00,60.8,22.0,29.74,WSW,248,8.0,14.0,22,0.00,,,0.00,weatherlink.com 1.10,2013-04-06 08:16:00,
2013-04-06 02:46:00,57.7,21.0,29.74,West,270,3.0,5.0,24,0.00,,,0.00,weatherlink.com 1.10,2013-04-06 08:46:00,
2013-04-06 03:01:00,56.0,20.0,29.74,WSW,246,0.0,6.0,25,0.00,,,0.00,weatherlink.com 1.10,2013-04-06 09:01:00,
2013-04-06 03:32:00,53.5,21.0,29.73,West,275,5.0,6.0,28,0.00,,,0.00,weatherlink.com 1.10,2013-04-06 09:32:00,
2013-04-06 03:46:00,55.2,22.0,29.73,NNW,335,2.0,7.0,27,0.00,,,0.00,weatherlink.com 1.10,2013-04-06 09:46:00,
2013-04-06 04:01:00,54.4,21.0,29.74,NNW,332,2.0,4.0,27,0.00,,,0.00,weatherlink.com 1.10,2013-04-06 10:01:00,
2013-04-06 04:32:00,56.4,23.0,29.74,ESE,112,3.0,4.0,27,0.00,,,0.00,weatherlink.com 1.10,2013-04-06 10:32:00,
2013-04-06 04:47:00,55.7,22.0,29.73,ENE,57,0.0,5.0,27,0.00,,,0.00,weatherlink.com 1.10,2013-04-06 10:47:00,
2013-04-06 05:02:00,54.3,22.0,29.74,South,169,4.0,6.0,28,0.00,,,0.00,weatherlink.com 1.10,2013-04-06 11:02:00,
2013-04-06 05:32:00,56.4,24.0,29.74,West,281,8.0,10.0,29,0.00,,,0.00,weatherlink.com 1.10,2013-04-06 11:32:00,
2013-04-06 05:47:00,56.0,23.0,29.74,WNW,284,4.0,8.0,28,0.00,,,0.00,weatherlink.com 1.10,2013-04-06 11:47:00,
2013-04-06 06:02:00,54.0,23.0,29.74,SW,227,4.0,7.0,30,0.00,,,0.00,weatherlink.com 1.10,2013-04-06 12:02:00,
2013-04-06 06:17:00,53.6,23.0,29.75,SW,227,3.0,5.0,30,0.00,,,0.00,weatherlink.com 1.10,2013-04-06 12:17:00,
2013-04-06 06:32:00,53.4,23.0,29.76,SW,227,3.0,6.0,31,0.00,,,0.00,weatherlink.com 1.10,2013-04-06 12:32:00,
2013-04-06 06:47:00,52.6,23.0,29.76,SW,228,4.0,5.0,32,0.00,,,0.00,weatherlink.com 1.10,2013-04-06 12:47:00,
2013-04-06 07:02:00,50.0,22.0,29.77,West,261,5.0,7.0,34,0.00,,,0.00,weatherlink.com 1.10,2013-04-06 13:02:00,
2013-04-06 07:17:00,50.4,23.0,29.77,West,263,4.0,6.0,34,0.00,,,0.00,weatherlink.com 1.10,2013-04-06 13:17:00,
2013-04-06 07:32:00,53.1,25.0,29.77,West,267,3.0,8.0,33,0.00,,,0.00,weatherlink.com 1.10,2013-04-06 13:32:00,
2013-04-06 07:47:00,54.1,24.0,29.78,WSW,258,4.0,8.0,31,0.00,,,0.00,weatherlink.com 1.10,2013-04-06 13:47:00,
2013-04-06 08:17:00,57.8,26.0,29.78,West,281,7.0,10.0,29,0.00,,,0.00,weatherlink.com 1.10,2013-04-06 14:17:00,
2013-04-06 08:32:00,59.0,25.0,29.78,NW,304,6.0,14.0,27,0.00,,,0.00,weatherlink.com 1.10,2013-04-06 14:32:00,
2013-04-06 08:47:00,60.0,25.0,29.79,NNW,339,7.0,11.0,26,0.00,,,0.00,weatherlink.com 1.10,2013-04-06 14:47:00,
2013-04-06 09:02:00,59.5,24.0,29.79,WNW,293,6.0,11.0,26,0.00,,,0.00,weatherlink.com 1.10,2013-04-06 15:02:00,
2013-04-06 09:17:00,60.2,25.0,29.78,WNW,291,5.0,10.0,26,0.00,,,0.00,weatherlink.com 1.10,2013-04-06 15:17:00,
2013-04-06 09:32:00,60.3,25.0,29.78,North,360,5.0,8.0,26,0.00,,,0.00,weatherlink.com 1.10,2013-04-06 15:32:00,
2013-04-06 09:47:00,60.3,24.0,29.78,WNW,297,6.0,10.0,25,0.00,,,0.00,weatherlink.com 1.10,2013-04-06 15:47:00,
2013-04-06 10:17:00,61.4,25.0,29.79,West,281,5.0,8.0,25,0.00,,,0.00,weatherlink.com 1.10,2013-04-06 16:17:00,
2013-04-06 10:32:00,61.6,24.0,29.79,SW,228,4.0,8.0,24,0.00,,,0.00,weatherlink.com 1.10,2013-04-06 16:32:00,
2013-04-06 10:47:00,62.1,25.0,29.79,WSW,253,3.0,11.0,24,0.00,,,0.00,weatherlink.com 1.10,2013-04-06 16:47:00,
2013-04-06 11:02:00,63.2,25.0,29.79,SSW,204,1.0,7.0,23,0.00,,,0.00,weatherlink.com 1.10,2013-04-06 17:02:00,
2013-04-06 11:17:00,64.2,25.0,29.78,West,281,0.0,8.0,23,0.00,,,0.00,weatherlink.com 1.10,2013-04-06 17:17:00,
2013-04-06 11:32:00,65.6,26.0,29.78,WSW,244,3.0,10.0,22,0.00,,,0.00,weatherlink.com 1.10,2013-04-06 17:32:00,
2013-04-06 11:47:00,65.8,26.0,29.78,SSE,153,9.0,15.0,22,0.00,,,0.00,weatherlink.com 1.10,2013-04-06 17:47:00,
2013-04-06 12:02:00,66.1,25.0,29.77,SE,141,0.0,13.0,21,0.00,,,0.00,weatherlink.com 1.10,2013-04-06 18:02:00,
2013-04-06 12:17:00,66.5,25.0,29.76,South,171,7.0,14.0,21,0.00,,,0.00,weatherlink.com 1.10,2013-04-06 18:17:00,
2013-04-06 12:32:00,66.7,25.0,29.75,SW,220,10.0,17.0,21,0.00,,,0.00,weatherlink.com 1.10,2013-04-06 18:32:00,
2013-04-06 12:47:00,68.1,25.0,29.74,South,186,3.0,14.0,20,0.00,,,0.00,weatherlink.com 1.10,2013-04-06 18:47:00,
2013-04-06 13:02:00,69.4,27.0,29.73,SE,144,12.0,16.0,20,0.00,,,0.00,weatherlink.com 1.10,2013-04-06 19:02:00,
2013-04-06 13:17:00,69.0,26.0,29.73,SW,227,17.0,19.0,20,0.00,,,0.00,weatherlink.com 1.10,2013-04-06 19:17:00,
2013-04-06 13:32:00,69.0,25.0,29.72,SSE,165,6.0,17.0,19,0.00,,,0.00,weatherlink.com 1.10,2013-04-06 19:32:00,
2013-04-06 13:47:00,70.2,25.0,29.71,SSW,205,2.0,17.0,18,0.00,,,0.00,weatherlink.com 1.10,2013-04-06 19:47:00,
2013-04-06 14:02:00,70.1,25.0,29.70,WSW,242,3.0,18.0,18,0.00,,,0.00,weatherlink.com 1.10,2013-04-06 20:02:00,
2013-04-06 14:17:00,71.6,24.0,29.68,South,175,7.0,17.0,17,0.00,,,0.00,weatherlink.com 1.10,2013-04-06 20:17:00,
2013-04-06 14:33:00,72.2,25.0,29.68,SW,235,10.0,17.0,17,0.00,,,0.00,weatherlink.com 1.10,2013-04-06 20:33:00,
2013-04-06 14:48:00,72.9,24.0,29.66,SSW,203,14.0,22.0,16,0.00,,,0.00,weatherlink.com 1.10,2013-04-06 20:48:00,
2013-04-06 15:03:00,72.0,23.0,29.66,South,171,11.0,25.0,16,0.00,,,0.00,weatherlink.com 1.10,2013-04-06 21:03:00,
2013-04-06 15:18:00,73.0,23.0,29.65,SW,229,13.0,20.0,15,0.00,,,0.00,weatherlink.com 1.10,2013-04-06 21:18:00,
2013-04-06 15:33:00,73.1,21.0,29.64,SSW,199,16.0,22.0,14,0.00,,,0.00,weatherlink.com 1.10,2013-04-06 21:33:00,
2013-04-06 15:48:00,73.8,23.0,29.64,SSE,147,10.0,15.0,15,0.00,,,0.00,weatherlink.com 1.10,2013-04-06 21:48:00,
2013-04-06 16:03:00,73.0,21.0,29.63,WSW,248,7.0,22.0,14,0.00,,,0.00,weatherlink.com 1.10,2013-04-06 22:03:00,
2013-04-06 16:18:00,73.5,23.0,29.62,South,184,17.0,17.0,15,0.00,,,0.00,weatherlink.com 1.10,2013-04-06 22:18:00,
2013-04-06 16:33:00,74.8,21.0,29.61,SW,223,17.0,20.0,13,0.00,,,0.00,weatherlink.com 1.10,2013-04-06 22:33:00,
2013-04-06 16:48:00,74.0,22.0,29.61,SW,220,11.0,22.0,14,0.00,,,0.00,weatherlink.com 1.10,2013-04-06 22:48:00,
2013-04-06 17:03:00,74.3,20.0,29.61,West,274,6.0,14.0,13,0.00,,,0.00,weatherlink.com 1.10,2013-04-06 23:03:00,
2013-04-06 17:18:00,74.8,21.0,29.60,West,263,3.0,9.0,13,0.00,,,0.00,weatherlink.com 1.10,2013-04-06 23:18:00,
2013-04-06 17:33:00,74.6,21.0,29.60,SSW,213,11.0,22.0,13,0.00,,,0.00,weatherlink.com 1.10,2013-04-06 23:33:00,
2013-04-06 17:48:00,75.3,21.0,29.60,SSE,163,7.0,11.0,13,0.00,,,0.00,weatherlink.com 1.10,2013-04-06 23:48:00,
2013-04-06 18:03:00,74.1,20.0,29.59,WSW,255,5.0,9.0,13,0.00,,,0.00,weatherlink.com 1.10,2013-04-07 00:03:00,
2013-04-06 18:18:00,74.3,20.0,29.59,South,180,4.0,7.0,13,0.00,,,0.00,weatherlink.com 1.10,2013-04-07 00:18:00,
2013-04-06 18:33:00,74.2,20.0,29.59,South,179,4.0,5.0,13,0.00,,,0.00,weatherlink.com 1.10,2013-04-07 00:33:00,
2013-04-06 18:48:00,73.9,18.0,29.59,SW,226,4.0,8.0,12,0.00,,,0.00,weatherlink.com 1.10,2013-04-07 00:48:00,
2013-04-06 19:03:00,74.0,20.0,29.58,WSW,257,3.0,5.0,13,0.00,,,0.00,weatherlink.com 1.10,2013-04-07 01:03:00,
2013-04-06 19:18:00,73.1,19.0,29.59,WSW,253,4.0,6.0,13,0.00,,,0.00,weatherlink.com 1.10,2013-04-07 01:18:00,
2013-04-06 19:33:00,72.7,19.0,29.59,SW,223,7.0,8.0,13,0.00,,,0.00,weatherlink.com 1.10,2013-04-07 01:33:00,
2013-04-06 19:48:00,71.9,16.0,29.59,West,262,8.0,17.0,12,0.00,,,0.00,weatherlink.com 1.10,2013-04-07 01:48:00,
2013-04-06 20:03:00,69.2,16.0,29.60,WSW,249,3.0,7.0,13,0.00,,,0.00,weatherlink.com 1.10,2013-04-07 02:03:00,
2013-04-06 20:18:00,66.4,16.0,29.61,WSW,251,6.0,6.0,14,0.00,,,0.00,weatherlink.com 1.10,2013-04-07 02:18:00,
2013-04-06 20:33:00,66.6,16.0,29.61,WSW,253,5.0,7.0,14,0.00,,,0.00,weatherlink.com 1.10,2013-04-07 02:33:00,
2013-04-06 20:48:00,65.7,17.0,29.61,WSW,252,6.0,7.0,15,0.00,,,0.00,weatherlink.com 1.10,2013-04-07 02:48:00,
2013-04-06 21:03:00,64.7,16.0,29.62,WSW,254,4.0,7.0,15,0.00,,,0.00,weatherlink.com 1.10,2013-04-07 03:03:00,
2013-04-06 21:18:00,64.4,16.0,29.62,WSW,250,6.0,7.0,15,0.00,,,0.00,weatherlink.com 1.10,2013-04-07 03:18:00,
2013-04-06 21:33:00,64.7,17.0,29.62,West,272,12.0,15.0,16,0.00,,,0.00,weatherlink.com 1.10,2013-04-07 03:33:00,
2013-04-06 21:48:00,66.8,18.0,29.63,West,266,8.0,11.0,15,0.00,,,0.00,weatherlink.com 1.10,2013-04-07 03:48:00,
2013-04-06 22:03:00,67.9,18.0,29.62,West,278,5.0,16.0,15,0.00,,,0.00,weatherlink.com 1.10,2013-04-07 04:03:00,
2013-04-06 22:18:00,68.1,17.0,29.63,WNW,286,5.0,16.0,14,0.00,,,0.00,weatherlink.com 1.10,2013-04-07 04:18:00,
2013-04-06 22:33:00,67.4,18.0,29.63,WNW,285,4.0,13.0,15,0.00,,,0.00,weatherlink.com 1.10,2013-04-07 04:33:00,
2013-04-06 22:48:00,67.4,18.0,29.63,West,264,10.0,14.0,15,0.00,,,0.00,weatherlink.com 1.10,2013-04-07 04:48:00,
2013-04-06 23:03:00,67.2,18.0,29.63,West,274,6.0,15.0,15,0.00,,,0.00,weatherlink.com 1.10,2013-04-07 05:03:00,
2013-04-06 23:18:00,66.8,19.0,29.64,West,274,7.0,11.0,16,0.00,,,0.00,weatherlink.com 1.10,2013-04-07 05:18:00,
2013-04-06 23:33:00,66.6,19.0,29.63,West,275,5.0,12.0,16,0.00,,,0.00,weatherlink.com 1.10,2013-04-07 05:33:00,
2013-04-06 23:48:00,67.0,19.0,29.63,WNW,303,5.0,17.0,16,0.00,,,0.00,weatherlink.com 1.10,2013-04-07 05:48:00,